Regional Weather Roundup
Issued by NWS

Home | Current Version | Previous Version | Graphics & Text | Print | Product List | Glossary On
Versions: 1 2 3 4 5 6 7 8 9 10 11 12 13 14 15 16 17 18 19 20 21 22 23 24 25 26 27 28 29 30 31 32 33 34 35 36 37 38 39 40 41 42 43 44 45 46 47 48 49 50
000
ASUS43 KMKX 261300
RWRWI

WISCONSIN REGIONAL WEATHER ROUNDUP
NATIONAL WEATHER SERVICE MILWAUKEE/SULLIVAN WI
700 AM CST FRI DEC 26 2014

NOTE: "FAIR" INDICATES FEW OR NO CLOUDS BELOW 12,000 FEET WITH NO
SIGNIFICANT WEATHER AND/OR OBSTRUCTIONS TO VISIBILITY.

WIZ001-002-006>008-014>016-023>028-261400-
NORTHWEST WISCONSIN

CITY           SKY/WX    TMP DP  RH WIND       PRES   REMARKS
SUPERIOR ARPT  FLURRIES  30  24  79 NE5       30.01R WCI  25
ASHLAND        CLOUDY    30  28  92 N8        29.99R WCI  22
HAYWARD        MOCLDY    29  27  92 NE9       29.92F WCI  20
SIREN          CLOUDY    30  29  96 NE5       29.95R WCI  25
CUMBERLAND     CLOUDY    30  28  93 NE8       29.91R WCI  23
RICE LAKE      CLOUDY    31  29  93 N9        29.92R WCI  23
CHETEK         CLOUDY    31  30  96 CALM      29.91R
LADYSMITH      CLOUDY    32  31  94 N7        29.92R WCI  26
EAU CLAIRE     CLOUDY    31  28  89 NE3       29.90R
MENOMONIE      CLOUDY    32  31  95 N6        29.90R FOG     WCI  27
NEW RICHMOND   CLOUDY    31  31  99 N7        29.92R FOG     WCI  25
OSCEOLA        CLOUDY    32  32 100 N5        29.96R WCI  27
$$

WIZ003>005-009-010-017-018-261400-
NORTH CENTRAL WISCONSIN

CITY           SKY/WX    TMP DP  RH WIND       PRES   REMARKS
MANITOWISH WTR CLOUDY    28  28 100 NE3       29.91S
ARBOR VITAE    CLOUDY    32  31  95 NE3       29.90F FOG
WOODRUFF       CLOUDY    32  31  95 NE3       29.90F FOG
RHINELANDER    CLOUDY    29  28  96 NE3       29.91R
EAGLE RIVER    CLOUDY    29  29 100 CALM      29.90S FOG
LAND O LAKES   CLOUDY    28  28 100 CALM      29.92R
PHILLIPS       CLOUDY    29  28  96 NE5       29.89R WCI  24
TOMAHAWK       CLOUDY    29  28  95 CALM      29.91R FOG
MEDFORD        CLOUDY    28  27  97 NE5       29.87S FOG     WCI  23
MERRILL        CLOUDY    28  28 100 NE5       29.89R FOG     WCI  23
$$

WIZ029-030-035-036-043>047-261400-
CENTRAL WISCONSIN

CITY           SKY/WX    TMP DP  RH WIND       PRES   REMARKS
WAUSAU         FOG       28  27  96 E5        29.89R VSB 1/4 WCI  23
MOSINEE        NOT AVBL
MARSHFIELD     FOG       26  24  92 CALM      29.89R VSB 1/4
STEVENS POINT  MOCLDY    23  23  99 CALM      29.91S FOG
WAUPACA        PTCLDY    28  27  96 CALM      29.93R FOG
WAUTOMA        NOT AVBL
WISC RAPIDS    CLEAR     26  23  88 CALM      29.92R FOG
CAMP DOUGLAS   FOG       23  23 100 E1        29.90R VSB 1/2
$$

WIZ011>013-019>022-031-037>040-048>050-261400-
NORTHEAST WISCONSIN

CITY           SKY/WX    TMP DP  RH WIND       PRES   REMARKS
ANTIGO         FOG       25  25 100 CALM      29.90S VSB 1/2
SHAWANO        CLOUDY    28  26  94 CALM      29.94R FOG
OCONTO         MOCLDY    26  26 100 CALM      29.94R
STURGEON BAY   MOCLDY    36  30  80 S5        29.96S WCI  32
GREEN BAY      MOCLDY    31  30  96 CALM      29.95R FOG
MANITOWOC      NOT AVBL
APPLETON       MOCLDY    32  32 100 VRB3      29.93R
CLINTONVILLE     N/A     27  27 100 CALM      29.93R FOG
OSHKOSH        MOCLDY    34  30  85 S5        29.93R WCI  30
$$

WIZ032>034-041-042-053>061-261400-
SOUTHWEST WISCONSIN

CITY           SKY/WX    TMP DP  RH WIND       PRES   REMARKS
LA CROSSE      CLEAR     26  24  92 CALM      29.90R
SPARTA         CLEAR     23  22  98 CALM      29.90R
VIROQUA        CLEAR     32  32 100 SE7       29.87R WCI  25
BOSCOBEL       FOG       27  24  89 CALM      29.91R VSB 1/2
PRAIRIE DU CHI CLEAR     33  29  86 CALM      29.89R
PLATTEVILLE    CLEAR     36  33  88 CALM      29.91S
$$

WIZ056-057-062-063-064-067-068-261400-
SOUTH CENTRAL WISCONSIN

CITY           SKY/WX    TMP DP  RH WIND       PRES   REMARKS
REEDSBURG      CLEAR     35  32  88 CALM      29.90R
BARABOO/DELLS  CLEAR     37  32  84 S9        29.90R WCI  30
LONE ROCK      NOT AVBL
MINERAL POINT  CLEAR     34  32  93 SE5       29.90S WCI  30
MADISON        PTCLDY    37  33  85 S7        29.93R WCI  32
MIDDLETON      PTCLDY    37  35  90 SE3       29.92R
WATERTOWN      PTCLDY    34  34  99 CALM      29.93S
MONROE         CLEAR     36  34  93 S14       29.91S WCI  27
JANESVILLE     CLEAR     37  34  87 S63       29.95R WCI  21
$$

WIZ051-052-058>065-066-070>072-261400-
SOUTHEAST WISCONSIN

CITY           SKY/WX    TMP DP  RH WIND       PRES   REMARKS
MILWAUKEE      MOCLDY    39  33  79 SW13      29.96S WCI  31
WAUKESHA       PTCLDY    37  34  87 SW10      29.96R WCI  30
MILWAUKEE/TIMM CLEAR     37  34  87 SW7       29.96R WCI  32
RACINE         CLOUDY    38  32  79 SW9G20    29.98S WCI  31
BURLINGTON     PTCLDY    34  32  92 S9        29.96S WCI  27
KENOSHA        MOCLDY    38  33  82 SW10      29.97S WCI  31
FOND DU LAC    MOCLDY    37  32  82 S8        29.93R WCI  31
SHEBOYGAN      PTCLDY    32  30  92 S5        29.95R WCI  27
WEST BEND      MOCLDY    36  32  87 S3        29.94R
JUNEAU         PTCLDY    33  32  96 SE5       29.95R WCI  28
$$

LSZ147-162-261400-
LAKE SUPERIOR

STATION/POSITION TIME  TEMP    WIND        PRES    WAVE
                       AIR SEA DIR/SP/G            HT/PER
                 (UTC) (F)     (DEG/KT/KT) (MB)    (FT/S)
DEVILS ISLAND    1200   33     360/ 14/ 15 1015.9R
PORT WING        1240   32      30/ 11/ 12 1015.9R
SAXON HARBOR     1200   32        CALM     1014.6R
$$

LMZ867-665-643>646-261400-
LAKE MICHIGAN

STATION/POSITION TIME  TEMP    WIND        PRES    WAVE
                       AIR SEA DIR/SP/G            HT/PER
                 (UTC) (F)     (DEG/KT/KT) (MB)    (FT/S)
CHAMBERS ISLAND  1200   29        CALM     1014.2R
NORTHPORT PIER   1200   33        CALM     1014.2S
SISTER BAY       1243             CALM       N/A
ALGOMA LAKESHORE 1245             CALM       N/A
KEWAUNEE LAKESHO 1200   30      CALM  /  1 1013.1R
SHEBOYGAN LAKESH 1200   39 40  190/ 12/ 14 1014.7R
PORT WASHINGTON  1200   37     170/  2/  3 1014.9S
MILWAUKEE LAKESH 1200   40     210/  9/ 12   N/A
KENOSHA   LAKESH 1200   40     220/ 15/ 21 1014.9R
$$

TC  - TEMPERATURE IN CELSIUS
VSB - VISIBILITY IN STATUTE MILES
WCI - WIND CHILL INDEX
HX  - HEAT INDEX




USA.gov is the U.S. government's official web portal to all federal, state and local government web resources and services.